Location: Cheching
(60.0667°N, 164.2167°W)
Time: 10:08:49
(UTC+00:00)

NOAA 19 - Pass Details

Date: 20 January 2021
Orbit: 840 x 862 km, 99.2° (Epoch: 26 February)

Event Time Altitude Azimuth Distance (km) Brightness Sun altitude
Rises 03:40:36 0° 144° (SE) 3,433 8.3 -7.1°
Reaches altitude 10° 03:43:00 10° 141° (SE) 2,498 7.5 -7.4°
Maximum altitude 03:48:27 60° 63° (ENE) 979 5.3 -8.0°
Drops below altitude 10° 03:53:54 10° 344° (NNW) 2,501 7.6 -8.6°
Sets 03:56:18 0° 341° (NNW) 3,438 8.3 -8.8°
